Flag for Romania Weather past 2 weeks in Bucharest, Romania

Now
86 °F

Sunny.


Feels Like: 85 °F
Forecast: 69 / 88 °F
Wind: 7 mph from East

Location: Bucharest / Imh

Current Time: Jul 30, 2014 at 8:12:50 PM

Latest Report: Jul 30, 2014 at 7:30 PM


Visibility: 10 mi

Pressure: 29.83 "Hg

Humidity: 40%

Dew point: 59 °F

Location of BucharestLocation

Historic Weather in Bucharest — Graph

°F

Bucharest temperature yesterday

Maximum temperature yesterday: 79 °F (at 12:00 PM)
Minimum temperature yesterday: 70 °F (at 4:00 AM)
Average temperature yesterday: 74 °F

Past Weeks' High & Low Weather Summary

 TemperatureHumidityPressure
High91 °F (Jul 22, 4:00 PM)100% (Jul 17, 4:30 AM)30.01 "Hg (Jul 17, 4:30 AM)
Low64 °F (Jul 17, 4:30 AM)22% (Jul 16, 2:30 PM)29.71 "Hg (Jul 23, 4:00 PM)
Average76 °F69%29.89 "Hg
* Reported Jul 15 7:00 PM — Jul 30 7:00 PM, Bucharest, Weather by CustomWeather, © 2014

Note: Actual official high and low records may vary slightly from our data, if they occured in-between our weather recording intervals... More about our weather records

Advertising

Bucharest weather history for previous 24 hours

 ConditionsComfort  
Time TempWeatherWind HumidityBarometerVisibility
7:00 PM
Jul 30
88 °FSunny.7 mph33%29.83 "Hg10 mi
6:30 PM86 °FPassing clouds.7 mph35%29.86 "HgN/A
6:00 PM88 °FPassing clouds.9 mph33%29.86 "HgN/A
5:30 PM90 °FPassing clouds.7 mph31%29.86 "HgN/A
5:00 PM88 °FPassing clouds.7 mph31%29.86 "HgN/A
4:30 PM88 °FSunny.9 mph31%29.86 "Hg10 mi
4:00 PM88 °FPassing clouds.7 mph31%29.86 "HgN/A
3:30 PM88 °FPassing clouds.9 mph33%29.89 "HgN/A
3:00 PM88 °FPassing clouds.7 mph33%29.89 "HgN/A
2:30 PM88 °FPassing clouds.5 mph33%29.89 "HgN/A
2:00 PM86 °FPassing clouds.7 mph35%29.89 "HgN/A
1:30 PM86 °FPassing clouds.7 mph40%29.89 "HgN/A
1:00 PM86 °FPassing clouds.7 mph43%29.89 "HgN/A
12:30 PM84 °FPassing clouds.5 mph48%29.89 "HgN/A
12:00 PM82 °FPassing clouds.7 mph51%29.89 "HgN/A
11:30 AM82 °FScattered clouds.7 mph58%29.92 "HgN/A
11:00 AM81 °FScattered clouds.5 mph66%29.92 "HgN/A
10:30 AM81 °FPassing clouds.5 mph62%29.92 "HgN/A
10:00 AM79 °FPassing clouds.5 mph65%29.89 "HgN/A
9:30 AM75 °FPassing clouds.5 mph78%29.92 "HgN/A
9:00 AM73 °FSunny.5 mph83%29.92 "Hg10 mi
8:30 AM72 °FPassing clouds.5 mph83%29.89 "HgN/A
8:00 AM70 °FPassing clouds.5 mph88%29.89 "HgN/A
7:30 AM68 °FSunny.2 mph94%29.89 "Hg10 mi
7:00 AM66 °FClear.2 mph94%29.89 "Hg4 mi
6:30 AM66 °FClear.2 mph94%29.89 "Hg4 mi
6:00 AM66 °FClear.2 mph94%29.89 "Hg4 mi
5:30 AM66 °FClear.No wind94%29.89 "Hg10 mi
5:00 AM66 °FMild.2 mph94%29.89 "HgN/A
4:30 AM66 °FClear.2 mph94%29.86 "Hg10 mi
4:00 AM66 °FMild.No wind94%29.89 "HgN/A
3:30 AM66 °FClear.No wind94%29.89 "Hg10 mi
3:00 AM66 °FClear.No wind100%29.89 "Hg10 mi
2:00 AM68 °FClear.No wind94%29.89 "Hg10 mi
1:30 AM68 °FClear.2 mph94%29.89 "Hg10 mi
1:00 AM68 °FPassing clouds.2 mph94%29.89 "HgN/A
12:30 AM70 °FMild.No wind88%29.89 "HgN/A
12:00 AM70 °FClear.2 mph94%29.89 "Hg10 mi
11:30 PM
Jul 29
70 °FClear.No wind94%29.89 "Hg10 mi
11:00 PM72 °FClear.5 mph88%29.89 "Hg10 mi
10:30 PM72 °FClear.2 mph94%29.89 "Hg10 mi
10:00 PM73 °FPassing clouds.2 mph89%29.89 "HgN/A
9:30 PM75 °FPassing clouds.2 mph83%29.89 "HgN/A
9:00 PM75 °FLight rain. Passing clouds.No wind83%29.89 "HgN/A
8:30 PM75 °FScattered clouds.No wind83%29.89 "HgN/A
8:00 PM75 °FPassing clouds.2 mph83%29.89 "HgN/A
Weather by CustomWeather, © 2014

See weather overviewHow to use our weather pages